Location: Agadir Irigdalene
(31.2522°N, 8.7797°W)
Time: 15:14:32
(UTC+00:00)

IRS-1C Rocket - Pass Details

Date: 01 December 2020
Orbit: 800 x 806 km, 99.0° (Epoch: 26 January)

Event Time Altitude Azimuth Distance (km) Brightness Sun altitude
Rises 19:13:44 0° 172° (S) 3,303 7.4 -21.3°
Reaches altitude 10° 19:16:05 10° 175° (S) 2,377 6.6 -21.8°
Maximum altitude 19:21:18 67° 258° (WSW) 869 4.4 -22.9°
Drops below altitude 10° 19:26:33 10° 341° (NNW) 2,390 6.6 -24.0°
Sets 19:28:55 0° 344° (NNW) 3,323 7.4 -24.5°
